Home   Weather   Beersheba   Past weeks

Flag for Israel Past Weather in Beersheba, Israel — Yesterday and Last 2 Weeks

Now
75 °F

Clear.


Feels Like: 75 °F
Forecast: 65 / 93 °F
Wind: 2 mph from North

Location: Ben Gurion International Airport

Current Time: Jun 29, 2017 at 1:34:16 am

Latest Report: Jun 29, 2017 at 12:50 am


Visibility: 10 mi

Pressure: 29.80 "Hg

Humidity: 83%

Dew Point: 70 °F

Location of BeershebaLocation

Past Weather in Beersheba — Graph

°F

Beersheba Temperature Yesterday

Maximum temperature yesterday: 91 °F (at 11:50 am)
Minimum temperature yesterday: 73 °F (at 3:50 am)
Average temperature yesterday: 81 °F

High & Low Weather Summary for the Past Weeks

 TemperatureHumidityPressure
High91 °F (Jun 28, 11:50 am)94% (Jun 18, 6:05 am)29.92 "Hg (Jun 18, 6:05 am)
Low68 °F (Jun 21, 4:50 am)31% (Jun 14, 9:50 am)29.74 "Hg (Jun 14, 3:50 am)
Average79 °F66%29.83 "Hg
* Reported Jun 14 12:20 am — Jun 29 12:20 am, Beersheba. Weather by CustomWeather, © 2017

Note: Actual official high and low records may vary slightly from our data, if they occured in-between our weather recording intervals... More about our weather records

Advertising

Beersheba Weather History for the Previous 24 Hours

Scroll right to see more
 ConditionsComfort  
Time TempWeatherWind HumidityBarometerVisibility
12:20 am
Thu, Jun 29
77 °FClear.5 mph79%29.80 "Hg10 mi
11:50 pm
Wed, Jun 28
77 °FClear.2 mph83%29.83 "Hg10 mi
11:20 pm77 °FClear.2 mph83%29.83 "Hg10 mi
10:50 pm77 °FPassing clouds.3 mph83%29.83 "HgN/A
10:20 pm77 °FPassing clouds.3 mph83%29.83 "HgN/A
9:50 pm79 °FPassing clouds.3 mph79%29.83 "HgN/A
9:20 pm79 °FPassing clouds.5 mph79%29.80 "HgN/A
8:50 pm79 °FPassing clouds.7 mph79%29.80 "HgN/A
8:20 pm81 °FPassing clouds.7 mph74%29.80 "HgN/A
7:50 pm81 °FPassing clouds.8 mph74%29.80 "HgN/A
7:20 pm82 °FPassing clouds.8 mph66%29.80 "HgN/A
6:50 pm84 °FPassing clouds.8 mph58%29.80 "HgN/A
6:20 pm84 °FPassing clouds.9 mph58%29.77 "HgN/A
5:50 pm86 °FSunny.9 mph59%29.77 "Hg10 mi
5:20 pm86 °FSunny.13 mph59%29.77 "Hg10 mi
4:50 pm88 °FSunny.13 mph49%29.77 "Hg10 mi
4:20 pm90 °FSunny.13 mph46%29.77 "Hg10 mi
3:50 pm88 °FSunny.14 mph49%29.77 "Hg10 mi
3:20 pm90 °FPassing clouds.15 mph46%29.77 "HgN/A
2:50 pm90 °FPassing clouds.15 mph46%29.80 "HgN/A
2:20 pm91 °FSunny.14 mph41%29.80 "Hg10 mi
1:50 pm91 °FSunny.13 mph38%29.80 "Hg10 mi
1:20 pm91 °FPassing clouds.10 mph38%29.80 "HgN/A
12:50 pm90 °FPassing clouds.9 mph43%29.80 "HgN/A
12:20 pm91 °FPassing clouds.8 mph44%29.80 "HgN/A
11:50 am91 °FPassing clouds.8 mph49%29.83 "HgN/A
11:20 am90 °FPassing clouds.6 mph46%29.80 "HgN/A
10:50 am86 °FPassing clouds.5 mph52%29.83 "HgN/A
10:20 am84 °FPassing clouds.5 mph55%29.83 "HgN/A
9:50 am82 °FPassing clouds.5 mph66%29.80 "HgN/A
9:20 am81 °FPassing clouds.5 mph70%29.80 "HgN/A
8:50 am79 °FPassing clouds.7 mph74%29.83 "Hg6 mi
8:20 am79 °FPassing clouds.6 mph74%29.83 "Hg5 mi
7:50 am77 °FScattered clouds.5 mph74%29.83 "Hg5 mi
7:35 am75 °FScattered clouds.5 mph74%29.83 "Hg5 mi
7:20 am75 °FScattered clouds.3 mph69%29.83 "Hg6 mi
6:50 am73 °FPassing clouds.5 mph69%29.80 "Hg5 mi
6:20 am73 °FPassing clouds.3 mph74%29.80 "Hg6 mi
6:05 am73 °FScattered clouds.6 mph74%29.80 "Hg6 mi
5:35 am75 °FPassing clouds.3 mph69%29.80 "Hg6 mi
5:05 am73 °FPassing clouds.2 mph74%29.80 "Hg6 mi
4:50 am73 °FPassing clouds.3 mph74%29.80 "Hg6 mi
4:20 am73 °FClear.2 mph78%29.77 "Hg10 mi
3:50 am73 °FClear.2 mph69%29.77 "Hg10 mi
3:20 am75 °FClear.1 mph69%29.77 "Hg10 mi
2:50 am75 °FClear.1 mph69%29.80 "Hg10 mi
2:20 am75 °FClear.1 mph69%29.80 "Hg10 mi
1:50 am75 °FClear.2 mph74%29.80 "Hg10 mi
1:20 am77 °FClear.1 mph74%29.80 "Hg10 mi
Weather by CustomWeather, © 2017

See weather overviewHow to use our weather pages